Latest Weather Observations for Darwin Harbour

IDD60901

Issued at 10:01 pm CST Tuesday 3 May 2016 (issued every 10 minutes, with the page automatically refreshed every 10 minutes)

About weather observations | Map of Darwin area stations | Latest observations for Darwin area | Other Formats
Station Details ID: 014072 Name: DARWIN NTC AWS Lat: -12.47 Lon: 130.85 Height: 0.0 m
Data from the previous 72 hours. | See also: Recent months for locations in Northern Territory
Date/Time
CST
Tmp

°C
App
Tmp
°C
Dew
Point
°C
Rel
Hum
%
Delta-T

°C
Wind Press
QNH
hPa
Press
MSL
hPa
Rain
since
9 am
mm
Dir
 
Spd
km/h
Gust
km/h
Spd
kts
Gust
kts
03/10:00pm 27.7 - - - - SE 7 11 4 6 1011.9 1011.8 -
03/09:30pm 27.7 - - - - SSE 7 11 4 6 1011.9 1011.8 -
03/09:00pm 27.5 - - - - S 7 11 4 6 1011.6 1011.5 -
03/08:30pm 27.6 - - - - E 7 11 4 6 1011.1 1011.0 -
03/08:00pm 27.5 - - - - E 9 13 5 7 1010.6 1010.5 -
03/07:30pm 27.2 - - - - E 11 13 6 7 1009.6 1009.5 -
03/07:00pm 26.7 - - - - NE 4 9 2 5 1009.2 1009.1 -
03/06:30pm 26.6 - - - - ENE 6 11 3 6 1009.2 1009.1 -
03/06:00pm 26.7 - - - - ENE 7 17 4 9 1008.9 1008.8 -
03/05:30pm 26.5 - - - - ENE 6 11 3 6 1008.7 1008.6 -
03/05:00pm 26.6 - - - - NNE 4 9 2 5 1008.9 1008.8 -
03/04:30pm 26.4 - - - - ENE 7 11 4 6 1008.6 1008.5 -
03/04:00pm 26.0 - - - - NNE 6 13 3 7 1009.0 1008.9 -
03/03:30pm 25.5 - - - - N 7 13 4 7 1009.5 1009.4 -
03/03:00pm 25.1 - - - - ENE 11 26 6 14 1010.0 1009.9 -
03/02:30pm 25.4 - - - - NNW 22 52 12 28 1010.0 1009.9 -
03/02:22pm 25.3 - - - - NNW 22 52 12 28 1009.5 1009.4 -
03/02:20pm 25.8 - - - - NNW 19 46 10 25 1009.2 1009.1 -
03/02:00pm 28.9 - - - - W 9 13 5 7 1009.1 1009.0 -
03/01:30pm 28.9 - - - - SW 11 17 6 9 1009.3 1009.2 -
03/01:00pm 30.7 - - - - S 4 7 2 4 1009.9 1009.8 -
03/12:30pm 30.0 - - - - SSE 9 13 5 7 1010.6 1010.5 -
03/12:00pm 30.4 - - - - E 11 15 6 8 1011.1 1011.0 -
03/11:30am 30.5 - - - - E 19 22 10 12 1011.4 1011.3 -
03/11:00am 29.3 - - - - ESE 17 20 9 11 1011.9 1011.8 -
03/10:30am 28.9 - - - - ESE 13 17 7 9 1012.2 1012.1 -
03/10:00am 29.0 - - - - E 13 19 7 10 1012.1 1012.0 -
03/09:30am 28.5 - - - - E 13 17 7 9 1012.0 1011.9 -
03/09:00am 27.7 - - - - E 11 15 6 8 1011.5 1011.4 -
03/08:30am 27.3 - - - - ENE 11 17 6 9 1011.3 1011.2 -
03/08:00am 26.2 - - - - E 17 24 9 13 1011.3 1011.2 -
03/07:30am 26.3 - - - - E 20 26 11 14 1011.1 1011.0 -
03/07:00am 26.1 - - - - E 17 20 9 11 1011.1 1011.0 -
03/06:30am 26.1 - - - - E 20 24 11 13 1010.8 1010.7 -
03/06:00am 26.3 - - - - E 24 28 13 15 1010.1 1010.0 -
03/05:30am 26.2 - - - - E 22 28 12 15 1009.9 1009.8 -
03/05:00am 26.2 - - - - E 17 22 9 12 1009.6 1009.5 -
03/04:30am 26.1 - - - - ESE 13 19 7 10 1009.6 1009.5 -
03/04:00am 26.2 - - - - ESE 17 20 9 11 1009.6 1009.5 -
03/03:30am 26.3 - - - - ESE 15 20 8 11 1009.8 1009.7 -
03/03:00am 26.5 - - - - ESE 11 19 6 10 1010.1 1010.0 -
03/02:30am 26.3 - - - - SE 11 17 6 9 1010.2 1010.1 -
03/02:00am 26.4 - - - - SE 15 22 8 12 1010.5 1010.4 -
03/01:30am 27.1 - - - - SE 11 15 6 8 1010.7 1010.6 -
03/01:00am 27.4 - - - - SSE 15 24 8 13 1011.4 1011.3 -
03/12:30am 28.7 - - - - ESE 17 20 9 11 1011.8 1011.7 -
03/12:00am 28.8 - - - - ENE 9 13 5 7 1011.9 1011.8 -
 
Date/Time
CST
Tmp

°C
App
Tmp
°C
Dew
Point
°C
Rel
Hum
%
Delta-T

°C
Wind Press
QNH
hPa
Press
MSL
hPa
Rain
since
9 am
mm
Dir
 
Spd
km/h
Gust
km/h
Spd
kts
Gust
kts
02/11:30pm 28.8 - - - - ENE 11 17 6 9 1012.0 1011.9 -
02/11:00pm 28.9 - - - - ENE 13 17 7 9 1011.9 1011.8 -
02/10:30pm 28.7 - - - - ENE 7 13 4 7 1011.8 1011.7 -
02/10:00pm 29.1 - - - - ENE 7 11 4 6 1012.0 1011.9 -
02/09:30pm 28.8 - - - - NE 6 9 3 5 1012.3 1012.2 -
02/09:00pm 29.2 - - - - NE 6 9 3 5 1012.1 1012.0 -
02/08:30pm 28.9 - - - - NE 7 11 4 6 1011.7 1011.6 -
02/08:00pm 29.0 - - - - NE 7 17 4 9 1011.1 1011.0 -
02/07:30pm 29.1 - - - - NE 7 13 4 7 1011.1 1011.0 -
02/07:00pm 29.3 - - - - NE 7 11 4 6 1010.8 1010.7 -
02/06:30pm 29.8 - - - - ENE 7 13 4 7 1010.0 1009.9 -
02/06:00pm 29.9 - - - - ENE 9 15 5 8 1009.5 1009.4 -
02/05:30pm 30.1 - - - - ENE 11 19 6 10 1009.2 1009.1 -
02/05:00pm 30.1 - - - - ENE 15 30 8 16 1008.9 1008.8 -
02/04:30pm 30.2 - - - - ENE 15 24 8 13 1008.6 1008.5 -
02/04:00pm 30.1 - - - - ENE 17 26 9 14 1008.4 1008.3 -
02/03:30pm 30.0 - - - - ENE 15 30 8 16 1008.4 1008.3 -
02/03:00pm 30.0 - - - - ENE 9 20 5 11 1008.6 1008.5 -
02/02:30pm 30.0 - - - - ENE 15 26 8 14 1009.0 1008.9 -
02/02:00pm 29.9 - - - - NE 11 26 6 14 1009.5 1009.4 -
02/01:30pm 29.0 - - - - NNE 13 26 7 14 1009.8 1009.7 -
02/01:00pm 30.7 - - - - ENE 22 33 12 18 1009.9 1009.8 -
02/12:30pm 30.2 - - - - E 20 30 11 16 1010.1 1010.0 -
02/12:00pm 29.5 - - - - E 20 28 11 15 1010.6 1010.5 -
02/11:30am 29.5 - - - - E 20 30 11 16 1011.1 1011.0 -
02/11:00am 29.7 - - - - E 24 33 13 18 1011.4 1011.3 -
02/10:30am 29.7 - - - - ENE 22 33 12 18 1011.5 1011.4 -
02/10:00am 29.1 - - - - E 20 30 11 16 1011.4 1011.3 -
02/09:30am 28.1 - - - - E 19 20 10 11 1011.5 1011.4 -
02/09:00am 27.7 - - - - E 20 28 11 15 1011.2 1011.1 -
02/08:30am 27.5 - - - - E 17 22 9 12 1011.1 1011.0 -
02/08:00am 27.2 - - - - ESE 17 22 9 12 1010.9 1010.8 -
02/07:30am 27.2 - - - - SE 19 24 10 13 1010.5 1010.4 -
02/07:00am 27.4 - - - - E 17 22 9 12 1010.3 1010.2 -
02/06:30am 27.2 - - - - E 15 20 8 11 1009.8 1009.7 -
02/06:00am 27.0 - - - - E 17 20 9 11 1009.7 1009.6 -
02/05:30am 27.2 - - - - E 17 24 9 13 1009.3 1009.2 -
02/05:00am 27.1 - - - - E 17 22 9 12 1009.0 1008.9 -
02/04:30am 27.1 - - - - ENE 15 22 8 12 1008.9 1008.8 -
02/04:00am 27.2 - - - - E 15 20 8 11 1009.0 1008.9 -
02/03:30am 27.0 - - - - ENE 7 17 4 9 1009.0 1008.9 -
02/03:00am 27.2 - - - - E 11 15 6 8 1008.9 1008.8 -
02/02:30am 26.9 - - - - E 15 20 8 11 1009.1 1009.0 -
02/02:00am 27.3 - - - - E 19 24 10 13 1009.4 1009.3 -
02/01:30am 27.0 - - - - ESE 20 26 11 14 1009.8 1009.7 -
02/01:00am 27.6 - - - - SE 15 20 8 11 1010.2 1010.1 -
02/12:30am 27.4 - - - - SE 11 15 6 8 1010.2 1010.1 -
02/12:00am 27.5 - - - - SE 15 19 8 10 1010.5 1010.4 -
 
Date/Time
CST
Tmp

°C
App
Tmp
°C
Dew
Point
°C
Rel
Hum
%
Delta-T

°C
Wind Press
QNH
hPa
Press
MSL
hPa
Rain
since
9 am
mm
Dir
 
Spd
km/h
Gust
km/h
Spd
kts
Gust
kts
01/11:30pm 27.4 - - - - E 13 17 7 9 1010.8 1010.7 -
01/11:00pm 27.8 - - - - E 17 22 9 12 1011.3 1011.2 -
01/10:30pm 27.8 - - - - E 28 32 15 17 1011.2 1011.1 -
01/10:00pm 27.3 - - - - E 26 33 14 18 1011.0 1010.9 -
01/09:30pm 28.1 - - - - ENE 26 39 14 21 1011.0 1010.9 -
01/09:27pm 28.2 - - - - ENE 24 39 13 21 1011.0 1010.9 -
01/09:00pm 29.5 - - - - NE 7 15 4 8 1010.9 1010.8 -
01/08:30pm 29.6 - - - - NE 7 11 4 6 1010.2 1010.1 -
01/08:00pm 29.7 - - - - NE 7 13 4 7 1009.8 1009.7 -
01/07:30pm 30.2 - - - - NNE 6 9 3 5 1009.5 1009.4 -
01/07:00pm 29.8 - - - - W 4 7 2 4 1009.3 1009.2 -
01/06:30pm 29.8 - - - - SW 6 15 3 8 1009.2 1009.1 -
01/06:00pm 30.5 - - - - NE 7 15 4 8 1008.9 1008.8 -
01/05:30pm 30.4 - - - - N 4 9 2 5 1008.2 1008.1 -
01/05:00pm 30.0 - - - - NNE 6 11 3 6 1007.7 1007.6 -
01/04:30pm 28.4 - - - - NNE 15 26 8 14 1007.9 1007.8 -
01/04:00pm 30.8 - - - - WNW 19 24 10 13 1007.7 1007.6 -
01/03:30pm 30.6 - - - - WNW 19 26 10 14 1007.9 1007.8 -
01/03:00pm 30.8 - - - - WNW 17 22 9 12 1008.1 1008.0 -
01/02:30pm 30.9 - - - - W 13 17 7 9 1008.6 1008.5 -
01/02:00pm 30.8 - - - - WNW 15 19 8 10 1008.8 1008.7 -
01/01:30pm 32.1 - - - - E 9 19 5 10 1009.1 1009.0 -
01/01:00pm 32.7 - - - - E 7 11 4 6 1009.5 1009.4 -
01/12:30pm 31.3 - - - - E 7 15 4 8 1010.0 1009.9 -
01/12:00pm 31.2 - - - - ENE 13 19 7 10 1010.3 1010.2 -
01/11:30am 31.1 - - - - ENE 15 22 8 12 1010.8 1010.7 -
01/11:00am 29.6 - - - - SE 7 11 4 6 1011.0 1010.9 -
01/10:30am 29.3 - - - - SE 9 13 5 7 1011.1 1011.0 -
01/10:00am 29.6 - - - - E 7 13 4 7 1011.4 1011.3 -
01/09:30am 28.9 - - - - E 7 11 4 6 1011.5 1011.4 -
01/09:00am 28.2 - - - - SE 9 11 5 6 1011.4 1011.3 -
01/08:30am 28.3 - - - - ESE 7 11 4 6 1011.5 1011.4 -
01/08:00am 28.0 - - - - ESE 11 15 6 8 1011.3 1011.2 -
01/07:30am 28.1 - - - - ESE 15 20 8 11 1010.7 1010.6 -
01/07:00am 28.5 - - - - ESE 9 13 5 7 1010.6 1010.5 -
01/06:30am 28.0 - - - - E 7 13 4 7 1010.3 1010.2 -
01/06:00am 27.2 - - - - E 6 9 3 5 1010.1 1010.0 -
01/05:30am 26.9 - - - - ENE 6 9 3 5 1010.0 1009.9 -
01/05:00am 26.3 - - - - NE 6 9 3 5 1010.2 1010.1 -
01/04:30am 25.6 - - - - NE 4 9 2 5 1009.7 1009.6 -
01/04:00am 26.8 - - - - ESE 7 13 4 7 1010.1 1010.0 -
01/03:30am 25.6 - - - - E 19 24 10 13 1009.6 1009.5 -
01/03:00am 25.2 - - - - ENE 19 30 10 16 1010.4 1010.3 -
01/02:30am 25.2 - - - - E 41 59 22 32 1010.3 1010.2 -
01/02:04am 28.7 - - - - SE 13 52 7 28 1010.3 1010.2 -
01/02:00am 29.2 - - - - SE 4 13 2 7 1010.3 1010.2 -
01/01:30am 28.4 - - - - NNW 13 28 7 15 1010.1 1010.0 -
01/01:00am 29.6 - - - - SW 9 13 5 7 1009.9 1009.8 -
01/12:30am 29.8 - - - - SW 7 9 4 5 1010.3 1010.2 -
01/12:00am 29.8 - - - - SW 9 13 5 7 1010.4 1010.3 -
 
Date/Time
CST
Tmp

°C
App
Tmp
°C
Dew
Point
°C
Rel
Hum
%
Delta-T

°C
Wind Press
QNH
hPa
Press
MSL
hPa
Rain
since
9 am
mm
Dir
 
Spd
km/h
Gust
km/h
Spd
kts
Gust
kts
30/11:30pm 29.9 - - - - WSW 9 13 5 7 1010.3 1010.2 -
30/11:00pm 29.9 - - - - WSW 6 9 3 5 1010.4 1010.3 -
30/10:30pm 29.9 - - - - W 7 9 4 5 1010.4 1010.3 -

Latest Capital City Observations: Canberra | Sydney | Melbourne | Brisbane | Adelaide | Perth | Hobart | Darwin

Other Formats:

Comma delimited format used in spreadsheet applications
http://www.bom.gov.au/fwo/IDD60901/IDD60901.95122.axf

JavaScript Object Notation format (JSON) in row-major order
http://www.bom.gov.au/fwo/IDD60901/IDD60901.95122.json